FW6905 Weather Reports


Display with metric or nautical units.
time (UTC)temp
F
wind
direction
speed
MPH
gust
MPH
rain 1hr
in
rain 24hr
in
rain mn
in
humidity
%
barometer
mb
20260505001505 49 90 1.0 2.0 0.00 0.00 0.00 75 1017.7
20260505001006 49 0 0.0 0.0 0.00 0.00 0.00 74 1017.7
20260505000506 49 90 0.0 1.0 0.00 0.00 0.00 74 1017.7
20260505000005 49 83 0.0 2.0 0.00 0.00 0.00 74 1017.7
20260504235506 49 78 0.0 2.0 0.00 0.00 0.00 73 1017.7
20260504235006 49 76 2.0 2.0 0.00 0.00 0.00 73 1017.7
20260504234505 50 74 2.0 2.0 0.00 0.00 0.00 73 1017.7
20260504234006 50 53 1.0 2.0 0.00 0.00 0.00 73 1017.7
20260504233506 50 0 0.0 0.0 0.00 0.00 0.00 73 1017.7
20260504232506 50 0 0.0 0.0 0.00 0.00 0.00 72 1017.7
20260504232006 50 0 0.0 0.0 0.00 0.00 0.00 73 1017.7
20260504231505 50 0 0.0 0.0 0.00 0.00 0.00 72 1017.7
20260504231006 51 0 0.0 0.0 0.00 0.00 0.00 71 1018.8
20260504230505 51 0 0.0 0.0 0.00 0.00 0.00 70 1018.8
20260504230006 51 0 0.0 0.0 0.00 0.00 0.00 70 1018.8
20260504225505 51 0 0.0 0.0 0.00 0.00 0.00 70 1017.7
20260504224506 51 112 0.0 2.0 0.00 0.00 0.00 70 1017.7
20260504224005 52 22 0.0 2.0 0.00 0.00 0.00 70 1018.8
20260504223506 52 22 0.0 2.0 0.00 0.00 0.00 69 1018.8
20260504223005 52 45 0.0 1.0 0.00 0.00 0.00 69 1018.8
20260504222006 53 0 0.0 0.0 0.00 0.00 0.00 69 1018.8
20260504221505 53 0 0.0 0.0 0.00 0.00 0.00 69 1018.8
20260504221006 53 203 0.0 2.0 0.00 0.00 0.00 70 1017.7
20260504220506 53 22 0.0 2.0 0.00 0.00 0.00 69 1017.7
20260504220010 53 23 0.0 2.0 0.00 0.00 0.00 68 1017.7
20260504215505 53 112 0.0 1.0 0.00 0.00 0.00 68 1018.8
20260504214506 54 0 0.0 0.0 0.00 0.00 0.00 67 1018.8
20260504214005 54 1 0.0 1.0 0.00 0.00 0.00 67 1018.8
20260504213505 54 1 0.0 1.0 0.00 0.00 0.00 68 1018.8
20260504213006 54 1 0.0 2.0 0.00 0.00 0.00 67 1018.8
20260504212006 54 85 0.0 2.0 0.00 0.00 0.00 67 1018.8
20260504211505 55 68 0.0 2.0 0.00 0.00 0.00 67 1018.8
20260504205505 55 0 0.0 0.0 0.00 0.00 0.00 69 1017.7
20260504205006 55 0 0.0 0.0 0.00 0.00 0.00 67 1017.7
20260504204505 56 45 0.0 2.0 0.00 0.00 0.00 66 1017.7
20260504203005 56 0 0.0 0.0 0.00 0.00 0.00 67 1017.7
20260504202505 56 0 0.0 0.0 0.00 0.00 0.00 66 1018.8
20260504202006 56 0 0.0 0.0 0.00 0.00 0.00 65 1018.8
20260504201505 57 0 0.0 0.0 0.00 0.00 0.00 64 1018.8
20260504201006 57 0 0.0 0.0 0.00 0.00 0.00 63 1018.8
20260504200505 57 0 0.0 0.0 0.00 0.00 0.00 64 1018.8
20260504200006 57 0 0.0 0.0 0.00 0.00 0.00 62 1018.8
20260504195505 58 100 0.0 2.0 0.00 0.00 0.00 62 1017.7
20260504195006 58 100 0.0 2.0 0.00 0.00 0.00 62 1017.7
20260504194006 58 158 0.0 2.0 0.00 0.00 0.00 61 1018.8
20260504193505 58 158 1.0 2.0 0.00 0.00 0.00 61 1018.8
20260504193005 59 68 0.0 1.0 0.00 0.00 0.00 58 1018.8
20260504192506 60 69 0.0 2.0 0.00 0.00 0.00 57 1017.7
20260504192005 60 65 0.0 2.0 0.00 0.00 0.00 57 1017.7
20260504191507 60 44 0.0 2.0 0.00 0.00 0.00 57 1017.7
20260504191005 60 41 0.0 2.0 0.00 0.00 0.00 55 1017.7
20260504190505 61 28 1.0 2.0 0.00 0.00 0.00 54 1017.7
20260504190005 61 302 0.0 2.0 0.00 0.00 0.00 55 1017.7
20260504185505 62 302 0.0 2.0 0.00 0.00 0.00 54 1017.7
20260504184505 62 337 0.0 1.0 0.00 0.00 0.00 52 1017.7
20260504184006 63 181 0.0 2.0 0.00 0.00 0.00 51 1017.7
20260504183505 63 177 0.0 2.0 0.00 0.00 0.00 52 1017.7
20260504183005 64 150 0.0 2.0 0.00 0.00 0.00 51 1017.7
20260504182005 65 353 1.0 2.0 0.00 0.00 0.00 48 1017.7
20260504181505 65 292 0.0 2.0 0.00 0.00 0.00 49 1017.7
20260504181005 65 254 0.0 2.0 0.00 0.00 0.00 49 1017.7
20260504180505 66 246 1.0 2.0 0.00 0.00 0.00 46 1017.7
20260504175505 67 241 2.0 3.0 0.00 0.00 0.00 44 1017.7
20260504175005 67 255 2.0 3.0 0.00 0.00 0.00 43 1017.7
20260504174506 68 257 2.0 2.0 0.00 0.00 0.00 42 1017.7
20260504174005 68 248 0.0 2.0 0.00 0.00 0.00 42 1017.7
20260504173506 68 241 0.0 2.0 0.00 0.00 0.00 40 1017.7
20260504173005 69 234 2.0 2.0 0.00 0.00 0.00 39 1017.7
20260504172506 69 249 1.0 2.0 0.00 0.00 0.00 37 1017.7
20260504172005 69 252 2.0 2.0 0.00 0.00 0.00 36 1017.7
20260504171506 70 243 1.0 2.0 0.00 0.00 0.00 35 1017.7
20260504171006 70 237 2.0 2.0 0.00 0.00 0.00 34 1017.7
20260504170505 70 242 1.0 2.0 0.00 0.00 0.00 33 1017.7
20260504151005 74 190 2.0 6.0 0.00 0.00 0.00 27 1017.7
20260504150505 75 225 3.0 9.0 0.00 0.00 0.00 26 1017.7
20260504141006 76 290 7.0 11.0 0.00 0.00 0.00 25 1017.7
20260504140505 76 287 5.0 12.0 0.00 0.00 0.00 25 1017.7
20260504110505 78 281 2.0 9.0 0.00 0.00 0.00 24 1018.8
20260504100505 77 284 6.0 10.0 0.00 0.00 0.00 26 1019.8
20260504082005 67 101 1.0 3.0 0.00 0.00 0.00 48 1019.8
20260504081505 67 149 1.0 4.0 0.00 0.00 0.00 48 1019.8
20260504081005 67 183 2.0 4.0 0.00 0.00 0.00 49 1019.8
20260504080505 66 149 2.0 3.0 0.00 0.00 0.00 51 1019.8
20260504050505 45 68 2.0 2.0 0.00 0.00 0.00 78 1018.8
20260504050005 45 60 1.0 2.0 0.00 0.00 0.00 78 1018.8
20260504045505 45 181 0.0 2.0 0.00 0.00 0.00 79 1019.8
20260504045005 45 262 0.0 2.0 0.00 0.00 0.00 79 1019.8
20260504044505 45 306 0.0 2.0 0.00 0.00 0.00 78 1019.8
20260504044005 45 111 0.0 2.0 0.00 0.00 0.00 78 1019.8
20260504043505 45 111 1.0 2.0 0.00 0.00 0.00 78 1019.8
20260504042505 45 0 0.0 0.0 0.00 0.00 0.00 76 1019.8
20260504042005 45 0 0.0 0.0 0.00 0.00 0.00 76 1019.8
20260504041505 45 0 0.0 0.0 0.00 0.00 0.00 76 1019.8
20260504041005 45 109 0.0 2.0 0.00 0.00 0.00 76 1019.8
20260504040505 45 109 0.0 2.0 0.00 0.00 0.00 76 1019.8
20260504040005 45 49 0.0 2.0 0.00 0.00 0.00 76 1019.8
20260504035505 45 77 0.0 2.0 0.00 0.00 0.00 75 1019.8
20260504035004 45 101 0.0 2.0 0.00 0.00 0.00 76 1019.8
20260504034505 45 0 0.0 0.0 0.00 0.00 0.00 76 1019.8
20260504034005 46 0 0.0 0.0 0.00 0.00 0.00 75 1019.8
20260504033505 45 0 0.0 0.0 0.00 0.00 0.00 75 1019.8
20260504032505 46 0 0.0 0.0 0.00 0.00 0.00 76 1019.8
20260504032005 46 89 0.0 2.0 0.00 0.00 0.00 76 1019.8
20260504031504 46 80 1.0 2.0 0.00 0.00 0.00 74 1019.8
20260504031005 46 71 1.0 2.0 0.00 0.00 0.00 74 1019.8
20260504030504 46 72 2.0 2.0 0.00 0.00 0.00 75 1019.8
20260504025005 46 90 0.0 2.0 0.00 0.00 0.00 74 1019.8
20260504024505 46 90 0.0 2.0 0.00 0.00 0.00 74 1019.8
20260504023505 46 0 0.0 0.0 0.00 0.00 0.00 74 1019.8
20260504023004 46 90 0.0 2.0 0.00 0.00 0.00 73 1019.8
20260504022505 46 90 0.0 2.0 0.00 0.00 0.00 73 1019.8
20260504022004 47 90 2.0 2.0 0.00 0.00 0.00 73 1019.8
20260504021004 47 135 0.0 2.0 0.00 0.00 0.00 73 1019.8
20260504020505 47 116 0.0 2.0 0.00 0.00 0.00 72 1019.8
20260504020005 47 99 1.0 2.0 0.00 0.00 0.00 72 1019.8
20260504015005 47 66 2.0 2.0 0.00 0.00 0.00 73 1018.8
20260504014505 47 90 0.0 2.0 0.00 0.00 0.00 71 1018.8
20260504013005 47 82 0.0 2.0 0.00 0.00 0.00 71 1018.8
20260504012005 47 68 0.0 2.0 0.00 0.00 0.00 71 1019.8
20260504011505 47 72 0.0 2.0 0.00 0.00 0.00 71 1019.8
20260504011005 48 70 0.0 3.0 0.00 0.00 0.00 71 1019.8
20260504010505 47 80 2.0 3.0 0.00 0.00 0.00 70 1019.8
20260504010005 47 100 2.0 2.0 0.00 0.00 0.00 72 1019.8
20260504005505 48 111 1.0 2.0 0.00 0.00 0.00 71 1019.8
20260504005005 48 112 0.0 2.0 0.00 0.00 0.00 69 1019.8
20260504004005 48 87 2.0 2.0 0.00 0.00 0.00 70 1018.8
20260504003504 48 68 1.0 2.0 0.00 0.00 0.00 69 1018.8
20260504002505 48 53 0.0 2.0 0.00 0.00 0.00 70 1019.8